Location: Buch
(50.1863°N, 11.0141°E)
Time: 09:35:24
(UTC+00:00)

Abrixas rocket - Pass Details

Date: 18 January 2020
Orbit: 352 x 361 km, 48.4° (Epoch: 27 February)

Event Time Altitude Azimuth Distance (km) Brightness Sun altitude
Exits shadow 05:05:10 62° 181° (S) 412 2.1 -19.0°
Drops below altitude 10° 05:08:10 10° 100° (E) 1,354 6.1 -18.5°
Sets 05:10:13 0° 97° (E) 2,203 7.6 -18.2°
